Home   Weather   Sioux Falls   Past weeks
Flag for USA

Past Weather in Sioux Falls, South Dakota, USA — Yesterday and Last 2 Weeks

Now
38 °F

Passing clouds.


Feels Like: 26 °F
Forecast: 49 / 35 °F
Wind: 25 mph from Northwest

Location: Foss Field

Current Time: Oct 22, 2019 at 9:58:38 am

Latest Report: Oct 22, 2019 at 8:56 am


Visibility: 10 mi

Pressure: 29.80 "Hg

Humidity: 65%

Dew Point: 27 °F

Location of Sioux FallsLocation

Past Weather in Sioux Falls — Graph

°F

Sioux Falls Temperature Yesterday

Maximum temperature yesterday: 51 °F (at 1:56 am)
Minimum temperature yesterday: 43 °F (at 10:56 pm)
Average temperature yesterday: 48 °F

High & Low Weather Summary for the Past Weeks

 TemperatureHumidityPressure
High73 °F (Oct 8, 2:56 pm)93% (Oct 10, 6:10 am)30.23 "Hg (Oct 10, 6:10 am)
Low26 °F (Oct 14, 6:56 am)29% (Oct 19, 3:56 pm)29.30 "Hg (Oct 21, 1:00 pm)
Average47 °F70%29.83 "Hg
* Reported Oct 7 8:56 am — Oct 22 8:56 am, Sioux Falls. Weather by CustomWeather, © 2019

Note: Actual official high and low records may vary slightly from our data, if they occured in-between our weather recording intervals... More about our weather records

Advertising

Sioux Falls Weather History for the Previous 24 Hours

Scroll right to see more
 ConditionsComfort  
Time TempWeatherWind HumidityBarometerVisibility
8:56 am
Tue, Oct 22
38 °FPassing clouds.25 mph65%29.80 "Hg10 mi
7:56 am36 °FPassing clouds.20 mph67%29.78 "Hg10 mi
6:56 am36 °FPassing clouds.22 mph73%29.77 "Hg10 mi
5:56 am37 °FPassing clouds.22 mph73%29.75 "Hg10 mi
5:09 am38 °FPartly cloudy.22 mph76%29.71 "Hg10 mi
4:56 am38 °FMostly cloudy.25 mph73%29.73 "Hg10 mi
3:56 am39 °FOvercast.22 mph73%29.71 "Hg10 mi
2:56 am40 °FOvercast.24 mph77%29.70 "Hg10 mi
1:56 am41 °FOvercast.29 mph74%29.68 "Hg10 mi
12:56 am42 °FOvercast.26 mph76%29.66 "Hg10 mi
11:56 pm
Mon, Oct 21
43 °FOvercast.30 mph76%29.64 "Hg10 mi
10:56 pm43 °FLight rain. Passing clouds.31 mph79%29.60 "Hg10 mi
9:56 pm44 °FLight rain. Mostly cloudy.29 mph79%29.57 "Hg10 mi
8:56 pm45 °FMostly cloudy.35 mph80%29.54 "Hg10 mi
7:56 pm45 °FLight rain. Mostly cloudy.39 mph82%29.51 "Hg9 mi
6:56 pm46 °FLight rain. Mostly cloudy.33 mph83%29.48 "Hg9 mi
5:56 pm46 °FLight rain. Fog.30 mph86%29.44 "Hg4 mi
4:56 pm45 °FLight rain. Cloudy.26 mph82%29.42 "Hg4 mi
4:39 pm45 °FLight rain. Cloudy.32 mph80%29.40 "Hg4 mi
3:56 pm44 °FRain. Fog.15 mph85%29.39 "Hg3 mi
2:56 pm44 °FLight rain. Mostly cloudy.20 mph82%29.37 "Hg5 mi
1:56 pm47 °FLight rain. Mostly cloudy.24 mph80%29.34 "Hg4 mi
1:25 pm48 °FLight rain. Fog.15 mph86%29.31 "Hg2 mi
1:00 pm48 °FLight rain. Fog.15 mph86%29.30 "Hg2 mi
11:56 am50 °FMostly cloudy.16 mph83%29.31 "Hg10 mi
10:56 am51 °FMostly cloudy.14 mph80%29.32 "Hg10 mi
10:12 am51 °FPartly sunny.15 mph83%29.33 "Hg10 mi
9:56 am51 °FMostly cloudy.12 mph83%29.34 "Hg10 mi
Weather by CustomWeather, © 2019

See weather overview